Regional Weather Roundup
Issued by NWS

Home | Current Version | Previous Version | Graphics & Text | Print | Product List | Glossary On
Versions: 1 2 3 4 5 6 7 8 9 10 11 12 13 14 15 16 17 18 19 20 21 22 23 24 25 26 27 28 29 30 31 32 33 34 35 36 37 38 39 40 41 42 43 44 45 46 47 48 49 50
000
ASUS45 KSLC 011810
RWRUT

UTAH REGIONAL WEATHER ROUNDUP
NATIONAL WEATHER SERVICE SALT LAKE CITY UT
1200 PM MDT WED JUL 01 2015

UTZ001>011-023>025-011900-

NORTHERN UTAH

CITY           SKY/WX    TMP DP  RH WIND       PRES   REMARKS
BRIGHAM CITY   SUNNY     89  46  22 CALM      30.10S
HILL AFB       MOSUNNY   86  52  30 VRB2      30.14S
LOGAN          SUNNY     89  48  24 VRB3      30.11S
OGDEN          SUNNY     89  49  25 W7        30.11S
PROVO AIRPORT  SUNNY     84  55  37 W7        30.12F
SALT LAKE CITY MOSUNNY   91  53  27 NW7       30.08S
VERNAL         SUNNY     82  49  31 S6        30.17S
WENDOVER       SUNNY     90  52  27 E6        30.10F
HEBER CITY     SUNNY     86  46  25 CALM      30.19S
WEST JORDAN    SUNNY     90  52  27 N5        30.12F

$$

UTZ012>022-026-027-011900-

SOUTHERN/CENTRAL UTAH

CITY           SKY/WX    TMP DP  RH WIND       PRES   REMARKS
BLANDING       PTSUNNY   87  46  24 S8        30.25S
BRYCE CANYON   SUNNY     82  48  30 E3        30.33S
CEDAR CITY     SUNNY     87  43  21 VRB3      30.16S
DELTA          SUNNY     89  47  23 NE7       30.11F
HANKSVILLE     PTSUNNY   95  43  16 W7        30.05F HX  91
MILFORD        SUNNY     93  48  21 NE9       30.11S
MOAB/CYNLANDS  MOSUNNY   94  46  19 VRB7      30.04S HX  90
PRICE          MOSUNNY   91  46  21 VRB5      30.16F
ST GEORGE      CLEAR     97  54  23 W10       29.96F HX  94
KANAB          SUNNY     90  48  24 S3        30.15F

$$

REGIONAL REPORTS     COLORADO/ARIZONA

CITY           SKY/WX    TMP DP  RH WIND       PRES   REMARKS
CRAIG, CO      CLOUDY    77  51  40 NW6       30.25S
GRAND JUNCTION PTSUNNY   86  48  26 S7        30.10S
RIFLE          PTSUNNY   88  47  24 N5        30.15F
MONTROSE       PTSUNNY   86  50  28 NW8       30.18S
CORTEZ         PTSUNNY   86  45  23 CALM      30.17F
PAGE, AZ       MOSUNNY   96  45  17 VRB6      30.02S HX  92
GRAND CANYON   SUNNY     80  55  42 VRB5      30.25F
KINGMAN        SUNNY     89  56  32 W16G25    30.06F
FLAGSTAFF      SUNNY     78  56  46 SW8       30.29S

$$

REGIONAL REPORTS    NEVADA/IDAHO/WYOMING

CITY           SKY/WX    TMP DP  RH WIND       PRES   REMARKS
LAS VEGAS, NV  MOSUNNY  101  54  20 VRB5      29.88S HX  99
ELY            SUNNY     87  44  22 NE8       30.24F
ELKO           MOSUNNY   87  51  28 CALM      30.17S
POCATELLO, ID  SUNNY     86  55  34 W9        30.12F
BURLEY         SUNNY     86  55  34 W8        30.09F
EVANSTON, WY   SUNNY     83  42  23 N10       30.31S
ROCK SPRINGS   MOSUNNY   81  50  33 N3        30.26F
KEMMERER       SUNNY     81  36  19 NW8G17    30.32S

$$


USA.gov is the U.S. government's official web portal to all federal, state and local government web resources and services.